Seward, AK

3:52 AM AKDT on March 24, 2017 (GMT -0800)
Seward

Weather History for PAWD - July, 2013

Change the Weather History Date:

Sunday, July 28, 2013

  Actual Average Record
Temperature  
Mean Temperature 57 °F -  
Max Temperature 66 °F 60 °F 79 °F (1993)
Min Temperature 50 °F 49 °F 3 °F (1971)
Degree Days  
Heating Degree Days 8    
Growing Degree Days 7 (Base 50)    
Moisture  
Dew Point 55 °F    
Average Humidity 88    
Maximum Humidity 100    
Minimum Humidity 78    
Precipitation  
Precipitation 0.00 in - - ()
Sea Level Pressure  
Sea Level Pressure 30.24 in    
Wind  
Wind Speed 3 mph (South)    
Max Wind Speed 12 mph    
Max Gust Speed -    
Visibility 10 miles    
Events      
Averages and records for this station are not official NWS values.
T = Trace of Precipitation, MM = Missing Value Source: NWS Daily Summary

Daily Weather History Graph

Daily Weather History Graph

Search for Another Location

Airport or City:

Trip Planner

Search our weather history database for the weather conditions in past years. The results will help you decide how hot, cold, wet, or windy it might be!

Date:

Astronomy

Jul. 28, 2013 Rise Set
Actual Time 5:29 AM AKDT 10:37 PM AKDT
Civil Twilight 4:25 AM AKDT 11:40 PM AKDT
Nautical Twilight 2:36 AM AKDT 1:31 AM AKDT
Astronomical Twilight Sun does not rise Sun does not rise
Moon 11:51 PM AKDT (7/28) 2:30 PM AKDT (7/28)
Length of Visible Light 19h 15m
Length of Day
17h 08m
Waning Gibbous, 59% of the Moon is Illuminated
Jul 28
Waning Gibbous
Jul 29
Last Quarter
Aug 6
New
Aug 14
First Quarter
Aug 20
Full

Hourly Weather History & Observations

Time (AKDT) Temp. Dew Point Humidity Pressure Visibility Wind Dir Wind Speed Gust Speed Precip Events Conditions
12:53 AM 54.0 °F 52.0 °F 93% 30.29 in 10.0 mi Calm Calm - N/A   Clear
1:53 AM 54.0 °F 52.0 °F 93% 30.28 in 10.0 mi Calm Calm - N/A   Clear
2:53 AM 53.1 °F 51.1 °F 93% 30.28 in 10.0 mi Calm Calm - N/A   Clear
3:53 AM 54.0 °F 52.0 °F 93% 30.28 in 10.0 mi Calm Calm - N/A   Clear
4:53 AM 52.0 °F 50.0 °F 93% 30.27 in 10.0 mi Calm Calm - N/A   Clear
5:53 AM 51.1 °F 48.9 °F 92% 30.27 in 10.0 mi Calm Calm - N/A   Clear
6:53 AM 50.0 °F 48.9 °F 96% 30.27 in 10.0 mi Calm Calm - N/A   Clear
7:53 AM 57.0 °F 55.0 °F 93% 30.26 in 10.0 mi Calm Calm - N/A   Clear
8:53 AM 64.0 °F 57.0 °F 78% 30.25 in 10.0 mi North 9.2 mph - N/A   Clear
9:53 AM 60.1 °F 55.0 °F 83% 30.25 in 10.0 mi SSE 6.9 mph - N/A   Clear
10:53 AM 62.1 °F 57.0 °F 84% 30.25 in 10.0 mi South 6.9 mph - N/A   Clear
11:53 AM 62.1 °F 57.0 °F 84% 30.24 in 10.0 mi SSE 11.5 mph - N/A   Clear
12:53 PM 64.0 °F 57.9 °F 80% 30.24 in 10.0 mi South 8.1 mph - N/A   Clear
1:53 PM 64.0 °F 57.9 °F 80% 30.24 in 10.0 mi South 8.1 mph - N/A   Clear
2:53 PM 64.9 °F 57.9 °F 78% 30.23 in 10.0 mi South 6.9 mph - N/A   Clear
3:53 PM 64.0 °F 57.9 °F 80% 30.23 in 10.0 mi South 10.4 mph - N/A   Clear
4:53 PM 64.9 °F 57.9 °F 78% 30.22 in 10.0 mi South 5.8 mph - N/A   Clear
5:53 PM 64.0 °F 57.9 °F 80% 30.21 in 10.0 mi South 5.8 mph - N/A   Clear
6:53 PM 62.1 °F 57.0 °F 84% 30.21 in 10.0 mi South 10.4 mph - N/A   Clear
7:53 PM 62.1 °F 57.0 °F 84% 30.20 in 10.0 mi South 5.8 mph - N/A   Clear
8:53 PM 60.1 °F 57.0 °F 90% 30.20 in 10.0 mi South 5.8 mph - N/A   Clear
9:53 PM 59.0 °F 57.0 °F 93% 30.19 in 10.0 mi Calm Calm - N/A   Clear
10:44 PM 57.2 °F 55.4 °F 94% 30.20 in 10.0 mi Calm Calm - N/A   Scattered Clouds
10:53 PM 57.9 °F 55.0 °F 90% 30.20 in 10.0 mi Calm Calm - N/A   Scattered Clouds
11:05 PM 55.4 °F 55.4 °F 100% 30.20 in 10.0 mi Calm Calm - N/A   Mostly Cloudy
11:53 PM 57.9 °F 55.9 °F 93% 30.21 in 10.0 mi Calm Calm - N/A   Overcast